Regional Weather Roundup
Issued by NWS

Home | Current Version | Previous Version | Text Only | Print | Product List | Glossary Off
Versions: 1 2 3 4 5 6 7 8 9 10 11 12 13 14 15 16 17 18 19 20 21 22 23 24 25 26 27 28 29 30 31 32 33 34 35 36 37 38 39 40 41 42 43 44 45 46 47 48 49 50

078
ASUS45 KBOU 230807
RWRCO

WEATHER ROUNDUP FOR COLORADO
NATIONAL WEATHER SERVICE DENVER/BOULDER CO
200 AM MDT SAT SEP 23 2017

NOTE: "FAIR" INDICATES FEW OR NO CLOUDS BELOW 12000 FEET WITH NO
SIGNIFICANT WEATHER AND/OR OBSTRUCTIONS TO VISIBILITY.

COZ001>005-013-030-031-230900-
...NORTHWEST COLORADO...

CITY           SKY/WX    TMP DP  RH WIND       PRES   REMARKS
CRAIG          MOCLDY    42  37  82 N6        29.97R
HAYDEN         MOCLDY    44  40  85 SW7       29.97F
MEEKER         FAIR      46  42  86 W5        29.93R
RABBIT EARS PA PTSUNNY   36  32  87 SW7       30.10S
STEAMBOAT SPGS FAIR      43  38  83 CALM      29.95F
WALDEN         MOCLDY    37  32  81 SE5       30.02S
$$

COZ006>008-011-230900-
...WEST CENTRAL VALLEYS...

CITY           SKY/WX    TMP DP  RH WIND       PRES   REMARKS
GRAND JUNCTION FAIR      58  33  39 NE9       29.78S
MONTROSE       MOCLDY    62  33  33 SE8       29.88S
EAGLE          CLOUDY    46  37  71 SE5       29.96R
RIFLE          CLOUDY    56  40  55 VRB3      29.84R
DELTA          NOT AVBL
NUCLA          CLOUDY    61  30  31 S21       29.92R
$$

COZ017>023-064>068-230900-
...SOUTHWEST COLORADO...

CITY           SKY/WX    TMP DP  RH WIND       PRES   REMARKS
DURANGO        MOCLDY    56  45  66 E7        29.96R
CORTEZ         FAIR      50  44  80 NE5       29.90R
PAGOSA SPRINGS RAIN      49  48  98 E3        30.07S
TELLURIDE      MOCLDY    50  32  50 E10G21    30.05R
WOLF CREEK PAS TSTM      32  32 100 S14G23    30.25F VSB 1/4 WCI  22
$$

COZ009-010-012-014-032>034-037-058>063-230900-
...CENTRAL COLORADO...

CITY           SKY/WX    TMP DP  RH WIND       PRES   REMARKS
ASPEN          FAIR      45  37  73 CALM      29.96R
BUENA VISTA    RAIN      50  42  73 SW5       30.07R
COPPER MTN     CLOUDY    43  30  61 S16G29    30.19S
BERTHOUD PASS  LGT SNOW  32  25  74 S23G40    30.22R WCI  19
COTTONWOOD PAS CLOUDY    46  41  81 SW14G24   30.14S
GUNNISON       FAIR      51  36  56 CALM      30.01S
KREMMLING      MOCLDY    43  37  81 CALM      29.99R
LEADVILLE      LGT RAIN  44  32  62 S13G30    30.11R
MONARCH PASS   MIX PCPN  34  32  93 SW23G36   30.34R VSB<1/4 WCI  22
SALIDA         CLOUDY    54  43  67 S9        30.13R
SUNLIGHT       CLOUDY    37  30  75 S6G26     30.13S
WILKERSON PASS CLOUDY    37  34  87 SW15G24   30.24S
$$

COZ069>075-230900-
...SAN LUIS VALLEY/SANGRE DE CRISTO MOUNTAINS...

CITY           SKY/WX    TMP DP  RH WIND       PRES   REMARKS
ALAMOSA        FAIR      48  44  86 N12       30.05S
DEL NORTE      LGT RAIN  46  42  86 W16       30.10R
LA VETA PASS   FAIR      45  36  70 S9G22     30.29R
SAGUACHE       CLOUDY    48  43  81 N8        30.09S
$$

COZ035-036-038>040-230900-
...NORTHERN COLORADO FRONT RANGE...

CITY           SKY/WX    TMP DP  RH WIND       PRES   REMARKS
DENVER INTL AP CLOUDY    50  39  66 NW8       29.98R
DMNS CITY PARK   N/A     53  36  53 NE14      29.98F
AURORA         MOCLDY    48  39  71 NE7       30.00R
FRONT RANGE AP FAIR      48  43  81 W7        29.99S
ERIE MUNI ARPT FAIR      52  36  53 E7        30.01R
BOULDER MUN AP FAIR      54  37  54 CALM      29.97R
CENTENNIAL     MOCLDY    52  39  61 N8        29.99R
BROOMFIELD     FAIR      52  36  54 NE9       29.99S
FORT COLLINS   FAIR      51  39  63 NE7       29.98R
LONGMONT       FAIR      51  40  66 CALM      29.97R
$$

COZ041-046-047-076>085-087-088-230900-
...PIKES PEAK/PALMER DIVIDE AND SOUTHERN FOOTHILLS...

CITY           SKY/WX    TMP DP  RH WIND       PRES   REMARKS
COLO. SPRINGS  FAIR      56  41  57 NW8       29.98R
A. F. ACADEMY  CLOUDY    53  38  58 N16       29.99R
SCHRIEVER AFB  FAIR      53  39  59 N17       29.96S
CHEYENNE MTN   MOCLDY    54  38  55 NW14G23   29.95R
ELLICOTT         N/A    N/A N/A N/A N8        29.95R
FALCON         MOCLDY    50  38  61 N12G20    30.01S
FORT CARSON    FAIR      56  40  54 NW17      29.94R
LIMON            N/A    N/A N/A N/A MISG      29.93R
MONUMENT HILL  MOCLDY    45  37  76 NW6       30.04F
CANON CITY     CLEAR     63  43  48 W10       29.89F
WALSENBURG     FAIR      54  41  62 W5        29.94S
TRINIDAD       FAIR      69  55  60 S20G31    29.92R
$$

COZ042>045-048>051-090-091-230900-
...NORTHEAST COLORADO...

CITY           SKY/WX    TMP DP  RH WIND       PRES   REMARKS
GREELEY ARPT   FAIR      52  40  63 N8        29.96R
AKRON          FAIR      49  42  77 N16       29.91R
BURLINGTON     FAIR      71  60  68 S14       29.87F
WRAY           FAIR      55  52  88 N13       29.85S
YUMA           FAIR      50  43  76 N16       29.89R
STERLING       FAIR      50  43  76 NE13      29.91R
HOLYOKE        LGT RAIN  54  46  76 N15       29.91R
FORT MORGAN    MOCLDY    52  41  67 NE16G22   29.91F
$$

COZ086-089-092>099-230900-
...SOUTHEAST COLORADO...

CITY           SKY/WX    TMP DP  RH WIND       PRES   REMARKS
PUEBLO         FAIR      62  42  47 N8        29.87R
LA JUNTA       FAIR      72  57  59 W6        29.83F
LAMAR          FAIR      72  60  66 S20G31    29.79F
SPRINGFIELD      N/A     66  63  90 S14       29.91S
$$




USA.gov is the U.S. government's official web portal to all federal, state and local government web resources and services.